[[{"header":{"parameterUnit":"m.s-1","parameterCategory":1,"la1":30.2991,"la2":30.254,"lo1":-89.0895,"lo2":-89.0444,"dy":0.0017,"dx":0.0017,"nx":28,"ny":28,"refTime":"2024-06-18T21:00:00:Z","depth":0,"parameterNumber":2,"parameterNumberName":"U-component_of_WINDS"},"data":[0,0,0,0,0,0,0,0,0,0,0,0,0,0,0,0,0,0,0,0,0,0,0,0,0,0,0,0,0,0,0,0,0,0,0,0,0,0,0,0,0,0,0,0,0,0,0,0,0,0,0,0,0,0,0,0,0,0,-9.3479,-9.3479,0,-9.3499,-9.3499,-9.35,-9.33,-9.3295,-9.3289,-9.3284,-9.3303,-9.3308,-9.3314,0,0,0,0,0,0,0,0,0,0,0,0,0,-9.3266,-9.3271,-9.3479,-9.3479,-9.3479,-9.3499,-9.3499,-9.35,-9.3301,-9.3295,-9.3288,-9.3282,-9.3301,-9.3308,-9.3314,0,0,0,0,0,0,0,0,0,0,0,0,0,-9.333,-9.3273,-9.3479,-9.3383,-9.3374,-9.3499,-9.3499,-9.35,-9.3303,-9.3294,-9.3286,-9.3279,-9.3299,-9.3307,-9.3315,-9.3532,0,0,-9.3341,-9.3345,0,0,0,0,0,0,0,0,-9.3327,-9.3338,-9.3397,-9.339,-9.338,-9.3389,-9.3431,-9.3511,-9.3305,-9.333,-9.3284,-9.3274,-9.3338,-9.3343,-9.3364,-9.3533,-9.3534,-9.3342,-9.3347,-9.3351,-9.3353,0,0,0,0,0,0,0,-9.3323,-9.3336,-9.3487,-9.3398,-9.3388,-9.3338,-9.3338,-9.3445,-9.338,-9.3327,-9.3313,-9.3318,-9.3332,-9.3357,-9.3363,-9.3534,-9.3342,-9.3349,-9.3354,-9.3358,-9.3882,-9.3891,0,0,0,0,0,0,-9.3331,-9.3334,-9.3486,-9.3487,-9.3333,-9.3349,-9.3349,-9.3394,-9.3378,-9.3368,-9.3325,-9.3309,-9.3347,-9.3354,-9.3363,-9.3616,-9.335,-9.3358,-9.3363,-9.3873,-9.3884,-9.3894,0,0,0,0,0,0,-9.3328,-9.3347,-9.3485,-9.3407,-9.342,-9.3361,-9.3414,-9.3399,-9.3424,-9.3377,-9.3364,-9.3363,-9.334,-9.3351,-9.3492,-9.3614,-9.3362,-9.337,-9.3863,-9.3877,-9.3889,-9.4124,0,0,0,0,0,0,-9.3322,-9.3347,-9.3429,-9.341,-9.3426,-9.3615,-9.3422,-9.3406,-9.3439,-9.3418,-9.3408,-9.3399,-9.3335,-9.3481,-9.35,-9.3621,-9.3376,-9.3852,-9.3869,-9.3885,-9.4105,-9.4144,-9.4177,0,0,0,0,0,-9.3315,-9.3494,-9.3434,-9.3453,-9.3527,-9.3622,-9.3631,-9.3554,-9.345,-9.3532,-9.3501,-9.3399,-9.3598,-9.3497,-9.3517,-9.3642,-9.3843,-9.3864,-9.3883,-9.4089,-9.4136,-9.4176,0,0,0,0,0,0,-9.3527,-9.3489,-9.3423,-9.36,-9.3616,-9.3588,-9.3689,-9.3606,-9.3651,-9.3629,-9.3531,-9.3531,-9.3688,-9.3679,-9.3567,-9.3852,-9.3702,-9.3727,-9.3851,-9.3896,-9.3931,-9.3929,-9.3383,0,0,0,0,0,-9.3594,-9.3675,-9.3638,-9.3798,-9.381,-9.3749,-9.3787,-9.3727,-9.3739,-9.3744,-9.3724,-9.3739,-9.3805,-9.385,-9.3907,-9.4103,-9.4098,-9.42,-9.4235,-9.4265,-9.4288,-9.439,-9.4435,-9.3959,-9.3959,-9.3959,0,0,-9.3734,-9.3723,-9.378,-9.384,-9.3845,-9.3931,-9.3755,-9.3853,-9.3915,-9.3758,-9.389,-9.3877,-9.3887,-9.4056,-9.413,-9.4054,-9.4418,-9.4291,-9.4315,-9.4321,-9.4416,-9.4461,-9.4501,-9.3973,-9.397,-9.3968,0,0,-9.4032,-9.4033,-9.4166,-9.4176,-9.4186,-9.4145,-9.4178,-9.4163,-9.4148,-9.4279,-9.4163,-9.4236,-9.4351,-9.4363,-9.4385,-9.4691,-9.4598,-9.4712,-9.4899,-9.5,-9.5038,-9.5071,-9.5179,-9.5219,-9.4735,-9.4736,-9.4736,0,-9.4203,-9.4329,-9.4245,-9.4351,-9.4381,-9.4245,-9.4379,-9.4392,-9.4421,-9.4444,-9.4359,-9.4502,-9.4499,-9.4669,-9.4744,-9.4767,-9.48,-9.4712,-9.5039,-9.5071,-9.5101,-9.5203,-9.5244,-9.4749,-9.4748,-9.4746,-9.4745,0,-9.4539,-9.4628,-9.4735,-9.4767,-9.4809,-9.4929,-9.4864,-9.4916,-9.4853,-9.4821,-9.4956,-9.4949,-9.5003,-9.5039,-9.4978,-9.5202,-9.5154,-9.5057,-9.4904,-9.5161,-9.5256,-9.5294,-9.4769,-9.4764,-9.476,-9.4756,0,0,-9.4968,-9.4955,-9.4996,-9.5009,-9.5012,-9.5079,-9.5193,-9.5247,-9.5294,-9.5319,-9.5412,-9.5514,-9.5423,-9.5448,-9.5387,-9.5477,-9.5719,-9.5367,-9.5366,-9.5432,-9.5965,-9.6038,-9.6085,-9.5659,-9.5666,-9.5672,-9.5964,0,-9.5258,-9.5452,-9.5382,-9.5581,-9.5661,-9.5535,-9.5634,-9.5646,-9.562,-9.5684,-9.5654,-9.5728,-9.5604,-9.5618,-9.5701,-9.5673,-9.5825,-9.565,-9.5743,-9.5748,-9.5744,-9.6134,-9.6211,-9.6487,-9.6,-9.6007,-9.6011,0,-9.5621,-9.5663,-9.5871,-9.5861,-9.5892,-9.5983,-9.6027,-9.609,-9.6102,-9.6077,-9.6106,-9.6026,-9.6137,-9.5987,-9.6138,-9.6022,-9.6056,-9.6048,-9.6057,-9.6061,-9.5894,-9.6148,-9.6573,-9.6615,-9.6069,-9.6064,-9.606,0,-9.5913,-9.6021,-9.6159,-9.6175,-9.6167,-9.6233,-9.6233,-9.6237,-9.6274,-9.6313,-9.6336,-9.6388,-9.6416,-9.6458,-9.6394,-9.6291,-9.6555,-9.6399,-9.6536,-9.6538,-9.6595,-9.6592,-9.7031,-9.6621,-9.662,-9.6619,-9.6618,0,-9.6243,-9.6375,-9.629,-9.6375,-9.6519,-9.6437,-9.6582,-9.6567,-9.6572,-9.6651,-9.6545,-9.6622,-9.6534,-9.6602,-9.6554,-9.6686,-9.67,-9.6682,-9.6667,-9.6691,-9.6693,-9.671,-9.6689,-9.663,-9.6628,-9.6626,-9.6624,0,-9.6592,-9.6541,-9.6683,-9.6665,-9.6663,-9.677,-9.6754,-9.6831,-9.6799,-9.6901,-9.692,-9.6868,-9.6944,-9.6885,-9.6959,-9.6926,-9.7101,-9.706,-9.7098,-9.7086,-9.7225,-9.7213,-9.7689,-9.7747,-9.7302,-9.7306,-9.7309,0,-9.6805,-9.6904,-9.6897,-9.6943,-9.695,-9.7026,-9.7064,-9.6988,-9.7032,-9.7054,-9.7129,-9.7196,-9.7245,-9.7371,-9.734,-9.7396,-9.7354,-9.7518,-9.7362,-9.7383,-9.7356,-9.735,-9.7359,-9.7549,-9.7554,-9.7558,-9.7562,0,-9.7189,-9.7159,-9.7219,-9.7271,-9.732,-9.7357,-9.7385,-9.7429,-9.7351,-9.7406,-9.7483,-9.7521,-9.7598,-9.7665,-9.7711,-9.7709,-9.7623,-9.7612,-9.7646,-9.767,-9.7688,-9.7679,-9.7182,-9.76,-9.7596,-9.7594,-9.7591,-9.759,-9.7476,-9.7558,-9.7566,-9.7637,-9.765,-9.768,-9.7752,-9.7729,-9.7792,-9.7848,-9.78,-9.7892,-9.7902,-9.7954,-9.7964,-9.8034,-9.7967,-9.8017,-9.8029,-9.8043,-9.8062,-9.7679,-9.8043,-9.8041,-9.804,-9.8039,-9.8038,0,-9.7853,-9.7853,-9.7919,-9.7962,-9.8018,-9.7934,-9.7962,-9.8014,-9.8096,-9.8113,-9.8165,-9.8253,-9.8318,-9.8294,-9.8351,-9.8413,-9.8375,-9.843,-9.8424,-9.8425,-9.812,-9.8084,-9.846,-9.846,-9.846,-9.846,-9.846,-9.846,-9.8056,-9.819,-9.8162,-9.8303,-9.8301,-9.8391,-9.8414,-9.844,-9.8454,-9.8558,-9.8612,-9.8596,-9.8596,-9.8653,-9.871,-9.8701,-9.8726,-9.8796,-9.8773,-9.8488,-9.8446,-9.8407,-9.8372,-9.8803,-9.8803,-9.9072,-9.9075,-9.9076]},{"header":{"parameterUnit":"m.s-1","parameterCategory":1,"la1":30.2991,"la2":30.254,"lo1":-89.0895,"lo2":-89.0444,"dy":0.0017,"dx":0.0017,"nx":28,"ny":28,"refTime":"2024-06-18T21:00:00:Z","depth":0,"parameterNumber":3,"parameterNumberName":"V-component_of_WINDS"},"data":[0,0,0,0,0,0,0,0,0,0,0,0,0,0,0,0,0,0,0,0,0,0,0,0,0,0,0,0,0,0,0,0,0,0,0,0,0,0,0,0,0,0,0,0,0,0,0,0,0,0,0,0,0,0,0,0,0,0,-0.4706,-0.4706,0,-0.4674,-0.4674,-0.4674,-0.4662,-0.4662,-0.4662,-0.4662,-0.4631,-0.463,-0.4629,0,0,0,0,0,0,0,0,0,0,0,0,0,-0.4756,-0.4755,-0.4706,-0.4706,-0.4705,-0.4675,-0.4674,-0.4674,-0.4662,-0.4662,-0.4662,-0.4662,-0.4631,-0.463,-0.4629,0,0,0,0,0,0,0,0,0,0,0,0,0,-0.473,-0.4755,-0.4706,-0.4696,-0.4695,-0.4675,-0.4674,-0.4674,-0.4662,-0.4662,-0.4662,-0.4662,-0.4631,-0.463,-0.4629,-0.4617,0,0,-0.4624,-0.4624,0,0,0,0,0,0,0,0,-0.4732,-0.4728,-0.4698,-0.4696,-0.4695,-0.4672,-0.468,-0.4655,-0.4662,-0.4674,-0.4662,-0.4662,-0.4645,-0.4642,-0.4636,-0.4616,-0.4614,-0.4624,-0.4623,-0.4623,-0.4622,0,0,0,0,0,0,0,-0.4734,-0.473,-0.4694,-0.4697,-0.4696,-0.4692,-0.4689,-0.4675,-0.4659,-0.4673,-0.4672,-0.4669,-0.4644,-0.4637,-0.4635,-0.4614,-0.4624,-0.4623,-0.4622,-0.4622,-0.4581,-0.458,0,0,0,0,0,0,-0.4737,-0.4731,-0.4695,-0.4693,-0.4714,-0.4691,-0.4688,-0.4679,-0.4659,-0.4656,-0.4669,-0.4668,-0.4639,-0.4637,-0.4634,-0.4618,-0.4623,-0.4622,-0.4621,-0.4581,-0.4581,-0.458,0,0,0,0,0,0,-0.4738,-0.4734,-0.4696,-0.4712,-0.4707,-0.469,-0.4681,-0.4679,-0.4672,-0.4656,-0.4653,-0.4665,-0.4639,-0.4636,-0.4621,-0.4617,-0.4621,-0.462,-0.4581,-0.4581,-0.458,-0.4587,0,0,0,0,0,0,-0.474,-0.4734,-0.473,-0.4712,-0.4706,-0.4684,-0.4681,-0.4678,-0.467,-0.4669,-0.4651,-0.4649,-0.4639,-0.4623,-0.4619,-0.4615,-0.4619,-0.4582,-0.4581,-0.4581,-0.4587,-0.4586,-0.4586,0,0,0,0,0,-0.4741,-0.4734,-0.473,-0.4726,-0.47,-0.4684,-0.468,-0.467,-0.4669,-0.4665,-0.4654,-0.4649,-0.4618,-0.4622,-0.4618,-0.4612,-0.4582,-0.4581,-0.4581,-0.4587,-0.4587,-0.4586,0,0,0,0,0,0,-0.4753,-0.4731,-0.4727,-0.4713,-0.47,-0.4682,-0.4676,-0.467,-0.4657,-0.4657,-0.4644,-0.4641,-0.4626,-0.4618,-0.4623,-0.4599,-0.4599,-0.4598,-0.4605,-0.4605,-0.4605,-0.4607,-0.4617,0,0,0,0,0,-0.4754,-0.4742,-0.4724,-0.4713,-0.4707,-0.4692,-0.4685,-0.4677,-0.4664,-0.4658,-0.4646,-0.4633,-0.462,-0.4612,-0.4599,-0.4585,-0.458,-0.4579,-0.4579,-0.4579,-0.4578,-0.4568,-0.4567,-0.4578,-0.4578,-0.4578,0,0,-0.4756,-0.4743,-0.4736,-0.4715,-0.4705,-0.4692,-0.4688,-0.4676,-0.4666,-0.4657,-0.4641,-0.4632,-0.4616,-0.4601,-0.4594,-0.4594,-0.4574,-0.4578,-0.4578,-0.4577,-0.4568,-0.4567,-0.4566,-0.4578,-0.4578,-0.4578,0,0,-0.4753,-0.4742,-0.4732,-0.472,-0.4703,-0.4693,-0.4691,-0.4672,-0.4665,-0.465,-0.4642,-0.463,-0.4608,-0.4597,-0.4589,-0.4579,-0.4574,-0.4575,-0.4574,-0.4565,-0.4564,-0.4563,-0.4558,-0.4557,-0.4574,-0.4574,-0.4574,0,-0.4758,-0.4739,-0.4727,-0.4714,-0.4705,-0.4694,-0.4683,-0.4673,-0.4653,-0.4646,-0.4646,-0.4617,-0.4606,-0.4587,-0.4585,-0.4578,-0.4574,-0.4577,-0.4565,-0.4564,-0.4563,-0.4558,-0.4557,-0.4574,-0.4574,-0.4574,-0.4574,0,-0.4745,-0.4732,-0.4726,-0.4705,-0.4695,-0.4683,-0.4669,-0.466,-0.4652,-0.4642,-0.4625,-0.4611,-0.4595,-0.459,-0.4583,-0.457,-0.457,-0.4567,-0.4567,-0.4562,-0.4558,-0.4556,-0.4575,-0.4574,-0.4574,-0.4574,0,0,-0.4751,-0.4722,-0.472,-0.471,-0.4689,-0.4679,-0.4666,-0.4649,-0.4641,-0.4627,-0.4615,-0.4596,-0.4592,-0.4583,-0.4575,-0.4566,-0.4558,-0.4565,-0.4564,-0.4563,-0.4541,-0.4542,-0.4541,-0.4554,-0.4554,-0.4553,-0.4542,0,-0.4745,-0.4721,-0.4709,-0.469,-0.4677,-0.4665,-0.4654,-0.464,-0.4629,-0.4616,-0.4605,-0.4591,-0.4588,-0.4582,-0.4573,-0.4561,-0.4553,-0.4562,-0.4543,-0.4542,-0.4547,-0.4539,-0.4541,-0.4531,-0.454,-0.454,-0.4539,0,-0.4736,-0.472,-0.47,-0.4679,-0.4673,-0.4663,-0.4645,-0.4633,-0.4616,-0.4609,-0.4597,-0.4588,-0.4573,-0.4574,-0.4553,-0.4559,-0.455,-0.4542,-0.4542,-0.454,-0.4541,-0.4536,-0.4527,-0.4526,-0.4537,-0.4537,-0.4537,0,-0.4741,-0.4715,-0.4699,-0.4691,-0.4666,-0.4659,-0.4649,-0.4632,-0.4622,-0.4606,-0.4599,-0.4582,-0.4573,-0.456,-0.4547,-0.4548,-0.4526,-0.4526,-0.4519,-0.452,-0.4516,-0.4516,-0.4505,-0.451,-0.451,-0.451,-0.451,0,-0.4735,-0.4723,-0.4701,-0.4691,-0.4677,-0.4662,-0.4648,-0.4636,-0.4621,-0.4608,-0.4597,-0.4586,-0.4569,-0.4555,-0.4545,-0.4528,-0.4524,-0.4517,-0.4515,-0.4518,-0.4519,-0.4512,-0.4513,-0.451,-0.451,-0.451,-0.451,0,-0.4739,-0.4724,-0.4705,-0.4683,-0.4677,-0.4667,-0.4647,-0.4637,-0.4625,-0.4609,-0.4604,-0.4586,-0.4568,-0.4554,-0.4531,-0.4524,-0.4507,-0.4504,-0.4512,-0.4511,-0.4505,-0.4505,-0.4489,-0.4486,-0.4494,-0.4494,-0.4494,0,-0.4737,-0.4727,-0.4703,-0.4693,-0.4682,-0.4667,-0.4656,-0.464,-0.4629,-0.4608,-0.46,-0.4582,-0.4566,-0.4539,-0.4523,-0.4506,-0.4502,-0.4497,-0.4499,-0.4503,-0.4501,-0.4502,-0.45,-0.4497,-0.4497,-0.4497,-0.4497,0,-0.4734,-0.4726,-0.4711,-0.4692,-0.4679,-0.4663,-0.4648,-0.464,-0.4622,-0.461,-0.4591,-0.4579,-0.4555,-0.4537,-0.4517,-0.4506,-0.4498,-0.4497,-0.4494,-0.4498,-0.4503,-0.4499,-0.4511,-0.4497,-0.4497,-0.4497,-0.4497,-0.4497,-0.4734,-0.4724,-0.4705,-0.4688,-0.4674,-0.4659,-0.4647,-0.4633,-0.4617,-0.4596,-0.4588,-0.4569,-0.455,-0.4522,-0.4511,-0.4495,-0.4494,-0.4491,-0.449,-0.4489,-0.4489,-0.4505,-0.4492,-0.4492,-0.4492,-0.4492,-0.4492,0,-0.4731,-0.4717,-0.4701,-0.4678,-0.4664,-0.4657,-0.4639,-0.4627,-0.4611,-0.4594,-0.4578,-0.4556,-0.4537,-0.452,-0.45,-0.4491,-0.4487,-0.4486,-0.4487,-0.4484,-0.4492,-0.4496,-0.449,-0.449,-0.449,-0.449,-0.449,-0.449,-0.4727,-0.4709,-0.4699,-0.4673,-0.466,-0.464,-0.463,-0.4616,-0.4602,-0.4578,-0.4562,-0.455,-0.4532,-0.4511,-0.4493,-0.4488,-0.4481,-0.4481,-0.4476,-0.4483,-0.4484,-0.4484,-0.4488,-0.448,-0.448,-0.4469,-0.4469,-0.4469]}]]